Погода в Тутончанах

Россия / Красноярский край     64°12′30″N   93°47′40″E
темп.,
°C
ветер,
м/с
пор.,
м/с
влажн.,
%
обл.,
%
осадки,
мм/ч
давл.,
гПа
погр.,
м
22 апреля, чт
чт2201:00−16сз1110084 0.0 10339
04:00−19сз1110067 0.0 10359
07:00−12з119372 0.0 103752
10:00−5з247785 0.0 1037394
13:00−3зсз467453 0.0 1037670
16:00−2зсз587175 0.0 1037918
19:00−3зсз6108069 0.0 1038693
22:00−6з349097 0.0 104076
23 апреля, пт
пт2301:00−7з239579 0.1 104070
04:00−10зюз2296100 0.0 104133
07:00−4зюз2388100 0.0 1041182
10:00−1з2489100 0.0 1041456
13:000з38100100 0.1 1041665
16:00+1з4998100 0.1 1041578
19:00+1з4987100 0.1 1042471
22:00−2зюз2392100 0.0 104253
24 апреля, сб
сб2401:00−3ююз119574 0.0 104217
04:00−9ююз119712 0.0 104210
07:00−5юз12935 0.0 104166
10:00−1юз23935 0.0 1039337
13:00+1з249887 0.0 1037309
16:00+1зсз249892 0.0 1035187
19:00−1зсз1197100 0.0 103410
22:00−5юз11978 0.0 103310
25 апреля, вс
вс2501:00−7сз0010063 0.0 103211
04:00−6зсз11100100 0.0 103170
07:00−4ююз12100100 0.0 103072
10:00−1зюз1295100 0.1 1028197
13:00+1зсз2397100 0.1 1027408
16:00+1зсз239998 0.0 1026232
19:000зсз2298100 0.1 102618
22:00−1зсз2297100 0.1 102628
26 апреля, пн
пн2601:00−2зсз2295100 0.1 102634
04:00−4сз22935 0.0 102534
07:00−2зсз26905 0.0 1026272
10:000сз34725 0.0 1026589
13:00+2сз346113 0.0 1026846
16:00+3сз3457100 0.0 1026891
19:00+1сз1171100 0.0 102634
22:00−1ссз117874 0.0 102710